Location: Dingelstädt
(51.3153°N, 10.3174°E)
Time: 02:59:40
(UTC+00:00)

Daily predictions for brighter satellites

Satellite Brightness Start Highest point End
(mag) Time Altitude Azimuth Time Altitude Azimuth Time Altitude Azimuth
ADEOS II 4.4 00:00:19 10° NE 00:03:04 14° E 00:05:48 10° ESE
Cosmos 220 Rocket 4.0 00:02:16 31° SW 00:04:11 69° WNW 00:08:24 10° NNE
NOSS 2-2 (D) 4.3 00:01:05 10° NW 00:05:56 62° SW 00:11:38 15° SSE
Cosmos 1461 3.9 00:02:29 10° WNW 00:06:04 28° WSW 00:06:31 27° SW
Cosmos 1553 Rocket 4.2 00:03:21 24° SSW 00:07:02 62° WNW 00:13:13 10° N
Gblst 52 Del rocket 4.2 00:01:44 10° WSW 00:07:52 86° S 00:13:28 10° E
Cosmos 1867 3.6 00:05:01 24° SW 00:08:25 89° NW 00:13:57 10° NE
Cosmos 1674 Rocket 3.6 00:06:55 32° SSW 00:08:50 68° WNW 00:13:09 10° N
Cosmos 2221 Rocket 4.1 00:06:47 27° SW 00:08:51 49° WNW 00:13:09 10° N
Cosmos 2298 Rocket 4.1 00:07:41 28° S 00:10:29 73° ESE 00:15:48 10° NNE
Cosmos 1238 Rocket 3.4 00:09:16 10° NNW 00:11:51 27° W 00:12:06 27° WSW
Cosmos 1674 3.6 00:10:51 26° WSW 00:12:18 37° WNW 00:15:51 10° N
Thor Agena Rocket 4.2 00:07:17 10° NNE 00:12:26 49° E 00:15:34 22° SSE
USA 306 3.6 00:11:52 31° SSE 00:12:43 35° SE 00:16:32 10° ENE
Cosmos 2369 Rocket 4.3 00:08:41 10° NNW 00:13:24 27° NE 00:18:06 10° E
ATLAS CENTAUR R/B 3.6 00:11:05 10° WNW 00:13:41 15° WSW 00:13:59 14° WSW
USA 307 3.7 00:15:20 30° SSE 00:16:11 33° SE 00:19:57 10° ENE
SL-16 R/B 3.8 00:16:08 13° SSE 00:19:44 23° ESE 00:24:07 10° NE
ATLAS 5 CENTAUR R/B 3.4 00:10:14 10° NW 00:22:18 43° WSW 00:24:40 26° SSW
ERBS 3.4 00:22:52 25° SE 00:22:52 25° SE 00:25:22 10° ENE
CZ-4C R/B 3.5 00:16:17 10° NW 00:22:58 40° WSW 00:27:52 21° S
Cosmos 1455 Rocket 3.4 00:18:39 10° N 00:23:06 63° ENE 00:26:09 20° SSE
Cosmos 2322 Rocket 4.4 00:19:12 10° W 00:23:23 21° NW 00:27:35 10° NNE
Cosmos 1980 3.8 00:20:38 26° S 00:23:52 67° ESE 00:29:29 10° NE
Cosmos 1378 Rocket 4.0 00:22:19 27° SW 00:24:28 51° WNW 00:28:50 10° N
Cosmos 2333 Rocket 3.4 00:19:42 11° WSW 00:24:47 38° NW 00:30:05 10° NNE
Cosmos 2322 4.5 00:20:47 15° WSW 00:25:20 47° NW 00:30:54 10° NNE
USA 215 3.6 00:18:59 10° ENE 00:25:28 68° NNW 00:31:59 10° W
Cosmos 332 Rocket 4.2 00:28:23 25° S 00:30:58 53° ESE 00:35:39 10° NNE
NOSS 0 Rocket 3.9 00:29:22 23° SSW 00:33:30 90° WNW 00:39:48 10° NNE
Meteor 2-10 Rocket 3.7 00:31:47 10° NNW 00:37:31 75° W 00:41:17 21° S
USA 32 4.0 00:35:15 25° SSW 00:38:24 76° W 00:43:41 10° N
Meteor 1-24 Rocket 4.4 00:34:53 16° SSE 00:39:03 47° E 00:44:14 10° NNE
Cosmos 1975 Rocket 3.2 00:39:39 24° S 00:42:16 69° E 00:46:44 10° NNE
UNK 4.5 00:41:10 10° SE 00:45:36 52° ENE 00:50:07 10° N
USA 308 3.2 00:44:46 28° SSW 00:46:40 49° SSE 00:50:42 10° ENE
Cosmos 2219 Rocket 3.5 00:43:04 10° WSW 00:48:07 33° NW 00:53:12 10° NNE
MOS 1 Rocket 4.0 00:44:36 10° SE 00:48:40 46° ENE 00:52:50 10° N
Cosmos 1455 3.2 00:45:41 10° N 00:49:14 43° ENE 00:52:38 11° SSE
Cosmos 1025 Rocket 3.2 00:47:03 22° S 00:49:44 66° E 00:54:01 10° NNE
Cosmos 1269 Rocket 4.0 00:44:46 10° NNW 00:50:05 84° WSW 00:55:06 11° SSE
GP-B 3.4 00:51:13 10° N 00:55:34 54° W 00:58:07 23° SSW
CZ-2D R/B 2.4 00:53:02 10° NNE 00:58:24 63° ESE 01:02:28 17° S
Meteor 2-5 Rocket 3.8 00:55:38 19° S 00:59:55 77° E 01:05:35 10° NNE
Cosmos 1300 3.7 00:56:39 10° NNW 01:00:00 30° W 01:01:27 23° SW
Lacrosse 5 2.8 00:58:31 20° S 01:01:20 35° SE 01:05:57 10° ENE
USA 267 4.5 01:02:15 18° SW 01:03:37 19° WSW 01:08:00 10° W
SL-14 R/B 4.5 01:02:27 19° WSW 01:04:30 30° WNW 01:07:57 10° N
Cosmos 1544 Rocket 3.5 01:05:02 10° N 01:09:30 86° W 01:13:10 15° S
Cosmos 371 Rocket 4.0 01:06:03 17° SW 01:09:31 44° WNW 01:14:12 10° NNE
USA 305 2.8 01:07:08 19° SW 01:10:03 73° SSE 01:14:14 10° ENE
BREEZE-M DEB (TANK) 4.2 00:58:49 10° WSW 01:13:03 69° S 01:17:03 10° E
Cosmos 2237 Rocket 2.5 01:11:28 17° SW 01:15:52 61° NW 01:21:33 10° NNE
AQUA 4.2 01:13:02 10° NNE 01:17:47 61° ESE 01:21:49 14° S
COSMOS 2428 4.2 01:12:56 10° WSW 01:17:54 30° NW 01:22:55 10° NNE
Cosmos 304 Rocket 4.2 01:17:17 18° SW 01:20:47 53° WNW 01:25:32 10° NNE
SL-16 R/B 2.5 01:14:48 10° S 01:21:00 71° WSW 01:27:16 10° NNW
SAR-Lupe-2 4.0 01:17:52 10° NNE 01:21:26 57° ESE 01:24:09 16° S
Helios 1A 3.3 01:17:49 10° SSE 01:21:59 67° ENE 01:26:13 10° N
Lacrosse 5 rocket 2.5 01:21:54 17° S 01:24:06 28° SE 01:27:38 10° ENE
SME Rocket 4.2 01:24:34 18° SW 01:26:55 31° W 01:31:30 10° NNW
Cosmos 2074 Rocket 4.0 01:21:21 10° NNW 01:27:37 72° W 01:33:53 10° S
Resurs 1-4 Rocket 2.1 01:22:20 10° NNE 01:27:37 77° WNW 01:31:56 16° SSW
Cosmos 1943 Rocket 2.4 01:27:11 10° NW 01:32:42 52° WSW 01:38:09 10° S
Cosmos 2297 3.7 01:27:01 10° NW 01:32:43 65° WSW 01:38:22 10° SSE
Cosmos 1703 4.1 01:36:07 10° S 01:39:54 48° E 01:43:43 10° NNE
Cosmos 2184 Rocket 4.1 01:36:19 10° NNW 01:42:29 59° W 01:48:32 10° S
Cosmos 2278 Rocket 4.0 01:40:12 10° WNW 01:43:02 14° W 01:45:24 11° WSW
CRYOSAT 2 4.4 01:38:47 11° S 01:43:28 68° W 01:48:22 10° N
ADEOS II 2.2 01:38:16 10° NNE 01:43:35 83° ESE 01:48:40 11° SSW
IDEFIX/ARIANE 42P 2.8 01:39:11 10° NNE 01:44:29 72° ESE 01:49:44 10° S
Cosmos 1610 Rocket 4.5 01:40:09 10° NNW 01:46:21 80° W 01:52:27 10° S
USA 306 2.9 01:47:54 10° WSW 01:52:05 79° NNW 01:56:16 10° ENE
Cosmos 2084 Rocket 3.3 01:49:15 14° SW 01:52:32 72° NW 01:56:21 10° NE
Cosmos 292 Rocket 4.1 01:48:10 11° S 01:52:48 63° ESE 01:57:33 10° NNE
USA 307 2.9 01:51:21 10° WSW 01:55:33 82° NNW 01:59:46 10° ENE
NPP 3.9 01:50:17 10° N 01:55:35 57° WNW 02:00:35 11° SW
ERBS 2.5 01:54:55 10° WSW 01:57:56 57° NNW 02:00:58 10° NE
Cosmos 2369 Rocket 2.1 01:52:26 10° NNW 01:58:04 78° WSW 02:03:38 10° SSE
Gblst 52 Del rocket 4.1 01:53:50 10° W 01:59:39 86° S 02:05:09 10° ESE
IRS-1D 4.0 01:56:08 10° NNE 02:01:28 63° ESE 02:06:41 10° S
Cosmos 2228 3.0 01:57:05 10° NNW 02:01:28 78° W 02:05:48 10° S
Cosmos 614 Rocket 4.3 01:56:32 10° NNW 02:01:31 49° WSW 02:06:31 10° S
EO 1 Del DPAF 3.0 01:58:19 10° NNE 02:01:50 78° WNW 02:05:16 10° SSW
SL-16 R/B 2.3 01:58:00 12° SW 02:03:19 72° WNW 02:09:01 10° NNE
Cosmos 2251 Rocket 3.5 01:58:21 10° NNW 02:03:37 73° WSW 02:08:52 10° SSE
Meteor 1-28 Rocket 3.8 02:03:45 10° SSW 02:07:14 37° W 02:10:43 10° NNW
Cosmos 1656 Rocket 3.6 02:02:01 10° NNW 02:07:28 81° WSW 02:12:53 10° SSE
USA 215 4.0 02:01:47 10° ENE 02:08:07 55° N 02:14:29 10° WNW
Cosmos 2058 Rocket 4.4 02:05:03 10° N 02:09:15 42° ENE 02:13:25 10° SE
COSMOS 2455 3.0 02:04:51 10° SSW 02:10:51 75° ESE 02:16:54 10° NE
Cosmos 1536 Rocket 3.9 02:08:02 10° SSW 02:12:21 52° WNW 02:16:40 10° N
COSMOS 2441 4.5 02:11:54 10° NNE 02:16:49 85° ESE 02:21:40 10° SSW
MSX 3.9 02:15:43 10° NNE 02:21:31 79° WNW 02:27:17 10° SSW
Nadezhda 1 Rocket 4.3 02:15:40 10° SSW 02:21:55 58° WNW 02:28:08 10° N
Cosmos 1455 3.9 02:21:54 10° NW 02:24:24 17° W 02:26:53 10° SW
USA 308 3.2 02:22:03 10° W 02:26:14 68° NNW 02:30:25 10° ENE
Cosmos 1603 4.4 02:21:27 10° S 02:26:52 51° ESE 02:32:22 10° NE
MOS 1 Rocket 4.4 02:23:51 10° SW 02:27:11 22° W 02:30:34 10° NW
Cosmos 1271 Rocket 3.8 02:25:10 10° NW 02:28:26 27° W 02:31:42 10° SSW
Cosmos 1606 Rocket 3.7 02:28:16 10° NNW 02:32:38 57° W 02:36:55 10° S
ALOS 3.4 02:31:23 10° NNE 02:35:52 44° E 02:40:20 10° S
